Location: Red Deer
(52.2681°N, 113.8112°W)
Time: 23:22:17
(UTC-06:00)

QB50P2 - Pass Details

Date: 22 May 2022
Orbit: 589 x 607 km, 97.9° (Epoch: 27 June)

Event Time Altitude Azimuth Distance (km) Brightness Sun altitude
Rises 01:29:22 0° 33° (NNE) 2,838 ? -17.3°
Reaches altitude 10° 01:33:47 10° 77° (ENE) 1,925 ? -17.3°
Maximum altitude 01:34:19 10° 85° (E) 1,910 ? -17.3°
Drops below altitude 10° 01:34:52 10° 92° (E) 1,922 ? -17.3°
Enters shadow 01:36:37 - 114° (ESE) 2,139 ? -17.3°
